Location: Givhans Ferry State Park
(33.0284°N, 80.3868°W)
Time: 09:38:17
(UTC-05:00)

Daily predictions for brighter satellites

Satellite Brightness Start Highest point End
(mag) Time Altitude Azimuth Time Altitude Azimuth Time Altitude Azimuth
Delta 2 Rocket 3.2 17:37:01 10° W 17:40:28 56° N 17:44:16 10° ENE
Cosmos 2056 Rocket 4.4 17:38:19 10° SSE 17:42:56 30° E 17:47:31 10° NE
Cosmos 1484 Rocket 4.1 17:40:56 10° ESE 17:43:27 18° ENE 17:45:58 10° NNE
ATLAS 2AS CENTAUR R/B 3.6 17:38:36 10° NW 17:46:25 63° WSW 17:53:36 10° SSE
Cosmos 375 4.2 17:43:43 10° NNW 17:47:51 72° ENE 17:51:40 10° SE
SMAP 3.0 17:44:49 10° SSE 17:49:24 65° ENE 17:54:01 10° N
Cosmos 1809 Rocket 4.5 17:45:56 10° N 17:51:59 60° E 17:57:58 10° SSE
Cosmos 2369 Rocket 3.9 17:50:23 10° ESE 17:52:40 13° E 17:54:58 10° ENE
CORIOLIS 4.2 17:48:04 10° SSE 17:53:24 64° ENE 17:58:44 10° N
Cosmos 1624 Rocket 4.4 17:50:51 10° S 17:55:43 43° ESE 18:00:38 10° NNE
Cosmos 1975 3.1 17:55:01 10° N 17:59:03 72° W 18:03:02 10° S
SL-24 DEB 4.2 17:54:39 10° N 17:59:21 72° E 18:03:59 10° S
Meteor 1-13 Rocket 4.2 17:54:49 10° S 18:00:28 77° E 18:06:17 10° N
Meteor 2-4 Rocket 4.0 17:56:05 10° SSE 18:01:04 40° E 18:06:02 10° NNE
Okean 1-7 Rocket 3.6 17:57:07 10° S 18:01:34 66° E 18:06:00 10° NNE
Cosmos 1371 Rocket 4.1 17:56:22 10° S 18:01:39 65° ESE 18:06:58 10° NNE
CZ-4 R/B 4.4 17:59:56 10° SSE 18:04:00 63° ENE 18:08:08 10° N
CZ-4 R/B 2.2 18:01:17 10° S 18:05:23 56° W 18:09:27 10° NNW
MOS 1 4.4 18:00:08 10° SSE 18:05:47 82° WSW 18:11:28 10° NNW
Tiangong 1 3.3 18:06:11 10° NW 18:07:51 14° N 18:09:19 11° NNE
SPOT 3 Rocket 3.8 18:04:32 10° S 18:09:43 76° WSW 18:14:54 10° NNW
MSX 3.8 18:04:25 10° SSE 18:10:07 70° ENE 18:15:50 10° N
NOSS 7 (H) 4.3 18:10:11 10° SSW 18:13:41 76° ESE 18:16:12 16° NE
Cosmos 1934 Rocket 4.4 18:08:57 10° NNE 18:14:43 38° E 18:20:32 10° SE
COSMOS 2487 3.4 18:11:18 10° NNW 18:14:47 51° WSW 18:18:16 10° S
Cosmos 1340 3.8 18:15:07 10° SE 18:18:10 23° E 18:18:56 22° ENE
Cosmos 1535 Rocket 4.5 18:18:50 10° N 18:25:01 61° E 18:31:06 10° SSE
Cosmos 1606 Rocket 4.1 18:21:32 10° NNE 18:25:41 37° E 18:29:48 10° SSE
Cosmos 1452 Rocket 4.1 18:27:08 10° SSE 18:31:48 34° E 18:33:51 25° ENE
COSMO-SKYMED 1 2.7 18:29:51 10° N 18:34:11 76° WNW 18:38:30 10° SSW
Cosmos 1025 Rocket 3.2 18:32:08 10° S 18:36:29 76° W 18:40:54 10° N
Cosmos 2239 Rocket 4.4 18:30:40 10° N 18:36:51 79° E 18:42:59 10° S
Cosmos 1190 Rocket 4.3 18:31:58 10° N 18:36:54 40° ENE 18:41:45 10° SE
Abrixas 2.2 18:37:57 10° NW 18:40:55 83° NE 18:41:15 67° ESE
Cosmos 1666 2.6 18:37:04 10° N 18:40:56 67° E 18:44:47 10° SSE
IDEFIX/ARIANE 42P 4.2 18:36:29 10° SSW 18:41:13 36° W 18:45:57 10° NNW
Cosmos 1821 Rocket 3.9 18:43:20 10° N 18:49:26 84° W 18:55:33 10° S
Cosmos 1833 Rocket 3.2 18:48:01 10° NNW 18:53:34 60° WSW 18:59:04 10° S
Orbus 7S? 3.2 18:55:32 10° SW 18:57:48 49° SW 18:57:48 49° SW
Cosmos 1605 Rocket 3.9 18:54:04 10° N 19:00:17 64° E 19:06:21 10° SSE
Cosmos 2058 Rocket 3.5 19:02:42 44° SE 19:02:42 44° SE 19:05:55 10° SSE
Cosmos 2082 Rocket 3.5 18:57:38 10° NW 19:02:55 41° WSW 19:08:12 10° S
Cosmos 2263 4.5 19:02:36 10° S 19:07:55 46° ESE 19:07:55 46° ESE
Meteor 1-28 Rocket 4.3 19:06:27 21° NNW 19:08:40 43° WNW 19:12:14 10° SSW
Cosmos 1420 Rocket 4.4 19:17:08 10° S 19:21:17 50° SSE 19:21:17 50° SSE
NOSS 3-4 (A) 3.8 19:15:27 10° NNW 19:22:38 84° WSW 19:30:14 10° SSE
NOSS 3-4 (C) 3.8 19:15:33 10° NNW 19:22:44 85° WSW 19:30:20 10° SSE
Delta 2 Rocket 4.2 19:19:21 10° WNW 19:21:53 41° WNW 19:21:53 41° WNW
Cosmos 407 Rocket 3.5 19:21:56 10° NNW 19:27:05 77° WSW 19:32:15 10° S
BREEZE M DEB (TANK) 4.4 19:26:39 10° NW 19:31:49 57° NE 19:34:22 47° E
Cosmos 1727 Rocket 4.3 19:27:39 10° SSW 19:33:49 65° W 19:38:31 18° N
Cosmos 2369 Rocket 2.4 19:30:22 10° SSW 19:35:59 67° WNW 19:36:50 59° NNW
FALCON 9 R/B 2.8 19:30:36 10° W 19:48:40 83° N 19:49:07 79° ENE
ATLAS 3B CENTAUR R/B 3.5 19:42:41 10° W 19:59:03 55° SSW 20:00:27 50° SSE
Cosmos 1943 Rocket 3.8 19:58:51 10° SSW 20:01:06 25° SSW 20:01:06 25° SSW
